Regional Weather Roundup
Issued by NWS

Home | Current Version | Previous Version | Graphics & Text | Print | Product List | Glossary On
Versions: 1 2 3 4 5 6 7 8 9 10 11 12 13 14 15 16 17 18 19 20 21 22 23 24 25 26 27 28 29 30 31 32 33 34 35 36 37 38 39 40 41 42 43 44 45 46 47 48 49 50
000
ASUS43 KLOT 311106
RWRIL

ILLINOIS REGIONAL WEATHER ROUNDUP
NATIONAL WEATHER SERVICE CHICAGO/ROMEOVILLE IL
600 AM CDT FRI OCT 31 2014

NOTE: "FAIR" INDICATES FEW OR NO CLOUDS BELOW 12,000 FEET WITH NO
SIGNIFICANT WEATHER AND/OR OBSTRUCTIONS TO VISIBILITY.

* THESE STATIONS ARE NOT UNDER NWS QUALITY CONTROL. THEY ALSO MAY NOT
  REPORT WEATHER SUCH AS PRECIPITATION OR FOG.

ILZ001-002-007-009-015-016-024-311200-
NORTHWEST ILLINOIS

CITY           SKY/WX    TMP DP  RH WIND       PRES   REMARKS
MOLINE         PTCLDY    37  22  54 NW20G29   30.23R WCI  27
STERLING*      MOCLDY    36  18  48 N18G29    30.18R WCI  25
SAVANNA*       MOCLDY    35  20  54 N23G32    30.21R WCI  23
$$

ILZ003-004-008-010-011-017-018-311200-
NORTH CENTRAL ILLINOIS

CITY           SKY/WX    TMP DP  RH WIND       PRES   REMARKS
ROCKFORD       CLOUDY    37  23  56 N23G31    30.16R WCI  26
FREEPORT*      MOCLDY    33  23  65 N17G28    30.19R WCI  22
ROCHELLE*      CLOUDY    35  24  63 NW23G29   30.14R WCI  23
DE KALB*       CLOUDY    35  24  66 NW21G30   30.11R WCI  23
PERU*          CLOUDY    40  25  56 NW26      30.14R
$$

ILZ005-006-012>014-019>023-311200-
NORTHEAST ILLINOIS

CITY           SKY/WX    TMP DP  RH WIND       PRES   REMARKS
CHICAGO-OHARE  CLOUDY    39  28  64 NW25G31   30.06R WCI  28
CHICAGO-MIDWAY CLOUDY    43  32  65 NW20G26   30.05R
AURORA         CLOUDY    38  28  67 NW25G33   30.10R WCI  27
LANSING*       LGT RAIN  41  34  77 NW14G22   30.04R
JOLIET*        CLOUDY    40  29  63 NW14G20   30.08R
WAUKEGAN       MOCLDY    36  28  73 NW12G32   30.06R WCI  28
DUPAGE AIRPORT CLOUDY    39  28  64 NW25G36   30.08R WCI  28
KANKAKEE*      CLOUDY    42  34  73 NW12      30.06R
WHEELING       CLOUDY    39  27  62 NW24G33   30.08R WCI  28
MORRIS*        CLOUDY    41  32  70 N16G24    30.08R
ROMEOVILLE*    CLOUDY    39  28  63 N22G36    30.07R WCI  29
NORTHERLY ISL    N/A     43  31  63 NW12        N/A
$$

LMZ740>746-311200-
SOUTHERN LAKE MICHIGAN

STATION/POSITION SKY/WX   TEMP    WIND        PRES    VSBY  WAVE
                          AIR SEA DIR/SP/G                  HT/PER
                          (F)     (DEG/KT/KT) (MB)    (MI)  (FT/S)
SOUTHERN BUOY              43 53  320/ 29/ 35 1015.5R         8/ 6
WAUKEGAN HARBOR            39     310/ 16/ 23   N/A
HARRISON CRIB              43     320/ 25/ 30   N/A
BURNHAM HARBOR             42     310/ 13/ 20   N/A
CALUMET HARBOR             42     320/ 12/ 18 1016.0R
MICHIGAN CITY              43     310/ 25/ 32   N/A
$$

ILZ025>027-034>036-040-047-049-050-058-095>099-311200-
WEST-CENTRAL ILLINOIS

CITY           SKY/WX    TMP DP  RH WIND       PRES   REMARKS
QUINCY         CLOUDY    44  29  55 N22G28    30.21R
GALESBURG*     CLOUDY    37  26  62 NW18G30   30.20R WCI  27
MACOMB*        CLOUDY    41  26  54 N21G31    30.22R
JACKSONVILLE*  CLOUDY    46  35  64 NW22G30   30.16R
PITTSFIELD*    CLOUDY    45  33  62 N18       30.20R
$$

ILZ028>032-037-038-041>044-048-051>054-059>061-311200-
CENTRAL ILLINOIS

CITY           SKY/WX    TMP DP  RH WIND       PRES   REMARKS
PONTIAC        CLOUDY    44  34  68 NW15G22   30.09R
BLOOMINGTON    CLOUDY    42  36  79 NW15      30.10R
DECATUR        CLOUDY    46  41  82 NW14      30.09R
PEORIA         MOCLDY    41  26  55 NW12G21   30.15R
LACON*         CLOUDY    39  24  54 N20G33    30.15R WCI  29
LINCOLN*       CLOUDY    45  38  77 N10G20    30.12R
SPRINGFIELD    CLOUDY    47  35  63 NW25G37   30.14R
TAYLORVILLE    CLOUDY    45  41  87 NW15G22   30.11R
$$

ILZ033-039-045-046-055>057-062-063-311200-
EAST-CENTRAL ILLINOIS

CITY           SKY/WX    TMP DP  RH WIND       PRES   REMARKS
CHAMPAIGN      CLOUDY    45  41  86 NW15      30.06R
DANVILLE*      RAIN      44  40  88 NW14G21   30.00S
RANTOUL*       CLOUDY    44  38  81 N14G24    30.06R
MATTOON        CLOUDY    44  41  89 NW9       30.05R
PARIS*         CLOUDY    44  42  95 W3        30.05R
$$

ILZ079-100>102-311200-
SOUTHWEST ILLINOIS

CITY           SKY/WX    TMP DP  RH WIND       PRES   REMARKS
ALTON          CLOUDY    47  42  84 NW8G17    30.14R
BELLEVILLE     MOCLDY    47  46  97 N7        30.11R
CAHOKIA*       CLOUDY    49  44  83 N10       30.14R
SPARTA*        CLOUDY    46  44  93 N9        30.10R
$$

ILZ064>066-069>071-074>076-080>082-084>086-088>090-092>094-311200-
SOUTH-CENTRAL ILLINOIS

CITY           SKY/WX    TMP DP  RH WIND       PRES   REMARKS
CARBONDALE     CLOUDY    50  47  89 NW8       30.06R
CAIRO*         CLOUDY    53  49  89 NW8       30.04R
EFFINGHAM*     CLOUDY    46  42  88 NW7       30.07S
MARION         CLOUDY    50  48  93 N3        30.06R
MT. VERNON     MOCLDY    46  41  81 N5        30.08R
CENTRALIA*     CLOUDY    47  43  87 NW7       30.08R
SALEM*         CLOUDY    48  46  95 NW7       30.09R
METROPOLIS*    CLOUDY    50  50 100 CALM      30.03R
$$

ILZ067-068-072-073-078-083-087-091-311200-
SOUTHEAST ILLINOIS

CITY           SKY/WX    TMP DP  RH WIND       PRES   REMARKS
LAWRENCEVILLE  CLOUDY    46  44  93 NW7       30.05R
FLORA*         PTCLDY    44  44  97 NW5       30.07S
FAIRFIELD*     PTCLDY    46  45  94 N6        30.06R
HARRISBURG*    CLOUDY    49  48  95 N6        30.06R
ROBINSON*      CLOUDY    46  44  93 NW3       30.05F
CARMI*         CLOUDY    49  48  97 NW6       30.05R
$$

ABBREVIATIONS USED IN REMARKS
   TC - TEMPERATURE IN CELSIUS
  WCI - WIND CHILL INDEX
   HX - HEAT INDEX
  VSB - VISIBILITY
$$




USA.gov is the U.S. government's official web portal to all federal, state and local government web resources and services.